When you browse on this site, cookies collect data to enhance your experience and personalize the content and advertising you see.
Visit our Privacy Policy to learn more. By continuing to use the site, you agree to this use of cookies and data.
  • In Hungary
  • List of Countries
  • For 7 days
  • Water Temperature
  • Satellite Maps
  • Weather Map
  • News
  • Weather Widgets
  • user-avatar
    Login

    Hourly Weather Masaya

    Today, 21 January, Monday

    Time Temperature Precipitation Wind Pressure Humidity
    00:00 +26°C° 0 mm 6 mps 743 mmHg 74%
    01:00 +26°C° 0 mm 6 mps 743 mmHg 73%
    02:00 +26°C° 0 mm 6 mps 742 mmHg 71%
    03:00 +24°C° 0 mm 6 mps 742 mmHg 70%
    04:00 +24°C° 0 mm 6 mps 742 mmHg 70%
    05:00 +24°C° 0 mm 6 mps 742 mmHg 70%
    06:00 +24°C° 0 mm 6 mps 743 mmHg 70%
    07:00 +26°C° 0 mm 7 mps 743 mmHg 64%
    08:00 +28°C° 0 mm 7 mps 743 mmHg 58%
    09:00 +29°C° 0 mm 8 mps 744 mmHg 52%
    10:00 +31°C° 0 mm 8 mps 743 mmHg 49%
    11:00 +33°C° 0 mm 8 mps 743 mmHg 47%
    12:00 +34°C° 0 mm 8 mps 743 mmHg 44%
    13:00 +34°C° 0 mm 8 mps 742 mmHg 44%
    14:00 +34°C° 0 mm 8 mps 741 mmHg 44%
    15:00 +34°C° 0 mm 8 mps 740 mmHg 45%
    16:00 +33°C° 0 mm 7 mps 741 mmHg 49%
    17:00 +30°C° 0 mm 6 mps 741 mmHg 54%
    18:00 +29°C° 0 mm 6 mps 741 mmHg 59%
    19:00 +28°C° 0 mm 6 mps 742 mmHg 63%
    20:00 +27°C° 0 mm 6 mps 742 mmHg 66%
    21:00 +27°C° 0 mm 6 mps 743 mmHg 70%
    22:00 +26°C° 0 mm 6 mps 743 mmHg 71%
    23:00 +26°C° 0 mm 6 mps 743 mmHg 73%

    Tomorrow, 22 January, Tuesday

    Time Temperature Precipitation Wind Pressure Humidity
    00:00 +24°C° 0 mm 6 mps 743 mmHg 75%
    01:00 +24°C° 0 mm 6 mps 742 mmHg 75%
    02:00 +24°C° 0 mm 6 mps 742 mmHg 76%
    03:00 +25°C° 0 mm 5 mps 741 mmHg 77%
    04:00 +25°C° 0 mm 5 mps 742 mmHg 78%
    05:00 +23°C° 0 mm 5 mps 742 mmHg 78%
    06:00 +23°C° 0 mm 5 mps 742 mmHg 79%
    07:00 +26°C° 0 mm 6 mps 743 mmHg 72%
    08:00 +27°C° 0 mm 6 mps 743 mmHg 66%
    09:00 +29°C° 0 mm 7 mps 744 mmHg 59%
    10:00 +30°C° 0 mm 7 mps 743 mmHg 56%
    11:00 +32°C° 0 mm 7 mps 743 mmHg 53%
    12:00 +33°C° 0 mm 7 mps 742 mmHg 49%
    13:00 +33°C° 0 mm 7 mps 741 mmHg 47%
    14:00 +33°C° 0 mm 7 mps 741 mmHg 45%
    15:00 +33°C° 0 mm 7 mps 740 mmHg 44%
    16:00 +32°C° 0 mm 7 mps 740 mmHg 47%
    17:00 +30°C° 0 mm 6 mps 740 mmHg 50%
    18:00 +29°C° 0 mm 6 mps 741 mmHg 53%
    19:00 +28°C° 0 mm 6 mps 741 mmHg 58%
    20:00 +28°C° 0 mm 6 mps 742 mmHg 63%
    21:00 +27°C° 0 mm 6 mps 742 mmHg 67%
    22:00 +26°C° 0 mm 6 mps 742 mmHg 70%
    23:00 +26°C° 0 mm 6 mps 742 mmHg 72%

    Day after tomorrow, 23 January, Wednesday

    Time Temperature Precipitation Wind Pressure Humidity
    00:00 +26°C° 0 mm 6 mps 742 mmHg 75%
    01:00 +26°C° 0 mm 5 mps 741 mmHg 76%
    02:00 +25°C° 0 mm 5 mps 741 mmHg 77%
    03:00 +25°C° 0 mm 5 mps 741 mmHg 78%
    04:00 +25°C° 0 mm 5 mps 741 mmHg 79%
    05:00 +25°C° 0 mm 5 mps 741 mmHg 79%
    06:00 +25°C° 0 mm 5 mps 741 mmHg 79%
    07:00 +26°C° 0 mm 5 mps 742 mmHg 73%
    08:00 +27°C° 0 mm 6 mps 742 mmHg 66%
    09:00 +29°C° 0 mm 6 mps 743 mmHg 60%
    10:00 +30°C° 0 mm 6 mps 743 mmHg 54%
    11:00 +33°C° 0 mm 6 mps 742 mmHg 49%
    12:00 +34°C° 0 mm 6 mps 741 mmHg 43%
    13:00 +34°C° 0 mm 6 mps 741 mmHg 43%
    14:00 +35°C° 0 mm 6 mps 740 mmHg 42%
    15:00 +35°C° 0 mm 6 mps 739 mmHg 41%
    16:00 +33°C° 0 mm 6 mps 739 mmHg 46%
    17:00 +32°C° 0 mm 5 mps 740 mmHg 51%
    18:00 +30°C° 0 mm 5 mps 740 mmHg 56%
    19:00 +29°C° 0 mm 5 mps 740 mmHg 61%
    20:00 +28°C° 0 mm 5 mps 741 mmHg 66%
    21:00 +27°C° 0 mm 5 mps 742 mmHg 71%
    22:00 +27°C° 0 mm 4 mps 741 mmHg 73%
    23:00 +26°C° 0 mm 4 mps 741 mmHg 75%

    24 January, Thursday

    Time Temperature Precipitation Wind Pressure Humidity
    00:00 +26°C° 0 mm 4 mps 741 mmHg 77%
    01:00 +25°C° 0 mm 4 mps 741 mmHg 78%
    02:00 +25°C° 0 mm 4 mps 740 mmHg 80%
    03:00 +25°C° 0 mm 3 mps 740 mmHg 82%
    04:00 +24°C° 0 mm 3 mps 740 mmHg 83%
    05:00 +24°C° 0 mm 3 mps 741 mmHg 84%
    06:00 +24°C° 0 mm 3 mps 741 mmHg 85%
    07:00 +26°C° 0 mm 4 mps 742 mmHg 77%
    08:00 +28°C° 0 mm 4 mps 742 mmHg 68%
    09:00 +29°C° 0 mm 5 mps 743 mmHg 60%
    10:00 +32°C° 0 mm 5 mps 742 mmHg 54%
    11:00 +33°C° 0 mm 5 mps 742 mmHg 49%
    12:00 +35°C° 0 mm 5 mps 742 mmHg 43%
    13:00 +35°C° 0 mm 5 mps 741 mmHg 43%
    14:00 +35°C° 0 mm 5 mps 740 mmHg 43%
    15:00 +35°C° 0 mm 5 mps 739 mmHg 44%
    16:00 +33°C° 0 mm 5 mps 739 mmHg 48%
    17:00 +32°C° 0 mm 5 mps 740 mmHg 53%
    18:00 +30°C° 0 mm 5 mps 740 mmHg 58%
    19:00 +29°C° 0 mm 5 mps 741 mmHg 63%
    20:00 +28°C° 0 mm 4 mps 741 mmHg 67%
    21:00 +27°C° 0 mm 4 mps 742 mmHg 72%
    22:00 +26°C° 0 mm 4 mps 742 mmHg 74%
    23:00 +26°C° 0 mm 4 mps 742 mmHg 76%

    25 January, Friday

    Time Temperature Precipitation Wind Pressure Humidity
    00:00 +26°C° 0 mm 4 mps 742 mmHg 78%
    01:00 +25°C° 0 mm 4 mps 742 mmHg 79%
    02:00 +25°C° 0 mm 4 mps 741 mmHg 80%
    03:00 +25°C° 0 mm 4 mps 741 mmHg 80%
    04:00 +25°C° 0 mm 4 mps 741 mmHg 81%
    05:00 +25°C° 0 mm 4 mps 742 mmHg 81%
    06:00 +25°C° 0 mm 4 mps 742 mmHg 81%
    07:00 +26°C° 0 mm 4 mps 742 mmHg 74%
    08:00 +28°C° 0 mm 5 mps 743 mmHg 67%
    09:00 +29°C° 0 mm 5 mps 744 mmHg 60%
    10:00 +32°C° 0 mm 6 mps 743 mmHg 55%
    11:00 +33°C° 0 mm 6 mps 743 mmHg 50%
    12:00 +35°C° 0 mm 6 mps 742 mmHg 45%
    13:00 +35°C° 0 mm 6 mps 741 mmHg 44%
    14:00 +35°C° 0 mm 6 mps 741 mmHg 42%
    15:00 +36°C° 0 mm 6 mps 740 mmHg 41%
    16:00 +34°C° 0 mm 6 mps 740 mmHg 46%
    17:00 +33°C° 0 mm 5 mps 741 mmHg 50%
    18:00 +30°C° 0 mm 5 mps 741 mmHg 55%
    19:00 +29°C° 0 mm 5 mps 742 mmHg 59%
    20:00 +28°C° 0 mm 4 mps 742 mmHg 63%
    21:00 +28°C° 0 mm 4 mps 743 mmHg 67%
    22:00 +27°C° 0 mm 4 mps 743 mmHg 69%
    23:00 +27°C° 0 mm 5 mps 743 mmHg 70%

    26 January, Saturday

    Time Temperature Precipitation Wind Pressure Humidity
    00:00 +26°C° 0 mm 5 mps 743 mmHg 72%
    01:00 +26°C° 0 mm 5 mps 743 mmHg 72%
    02:00 +26°C° 0 mm 4 mps 742 mmHg 73%
    03:00 +25°C° 0 mm 4 mps 742 mmHg 73%
    04:00 +25°C° 0 mm 4 mps 742 mmHg 73%
    05:00 +25°C° 0 mm 4 mps 742 mmHg 72%
    06:00 +25°C° 0 mm 4 mps 742 mmHg 72%
    07:00 +27°C° 0 mm 5 mps 743 mmHg 65%
    08:00 +28°C° 0 mm 6 mps 743 mmHg 58%
    09:00 +30°C° 0 mm 7 mps 744 mmHg 51%
    10:00 +32°C° 0 mm 7 mps 743 mmHg 46%
    11:00 +34°C° 0 mm 7 mps 743 mmHg 42%
    12:00 +35°C° 0 mm 7 mps 742 mmHg 38%
    13:00 +35°C° 0 mm 7 mps 742 mmHg 39%
    14:00 +35°C° 0 mm 7 mps 741 mmHg 39%
    15:00 +35°C° 0 mm 7 mps 740 mmHg 40%
    16:00 +33°C° 0 mm 7 mps 740 mmHg 46%
    17:00 +30°C° 0 mm 6 mps 741 mmHg 53%
    18:00 +29°C° 0 mm 6 mps 741 mmHg 60%
    19:00 +28°C° 0 mm 6 mps 742 mmHg 63%
    20:00 +27°C° 0 mm 6 mps 742 mmHg 67%
    21:00 +26°C° 0 mm 6 mps 743 mmHg 70%
    22:00 +26°C° 0 mm 5 mps 743 mmHg 70%
    23:00 +26°C° 0 mm 5 mps 742 mmHg 70%
    Show more